Station Historical Data
Daily Summary for April 7, 2017 Units:  English    Metric   Both
« Previous Day
Next Day »
Daily Weekly Monthly Yearly Custom
  High: Low: Average:
Temperature: 37.7 °F 32.0 °F 33.7 °F
Dew Point: 31.1 °F 23.3 °F 28.7 °F
Humidity: 93% 63% 82%
Wind Speed: 15.0mph 0.0mph 4.9mph
Wind Gust: 22.0mph - -
Wind- - NW
Pressure: 29.86 in 29.33 in -
Precipitation: 0.00 in    
Historical Graphs
 
 
Tabular Data for April 7, 2017
Time Temperature Dew Point Pressure Wind Wind Speed Wind Gust Humidity Rainfall Rate (Hourly)
00:04 32.8 °F 31.0 °F 29.33 in NW 3.0 mph 7.0 mph 93% 0.00 in
00:09 32.8 °F 31.0 °F 29.34 in NW 3.0 mph 7.0 mph 93% 0.00 in
00:14 32.8 °F 31.0 °F 29.34 in NW 3.0 mph 7.0 mph 93% 0.00 in
00:19 32.8 °F 31.0 °F 29.34 in WNW 5.0 mph 9.0 mph 93% 0.00 in
00:24 32.8 °F 31.0 °F 29.34 in NW 4.0 mph 9.0 mph 93% 0.00 in
00:29 32.7 °F 30.9 °F 29.33 in WNW 3.0 mph 6.0 mph 93% 0.00 in
00:34 32.7 °F 30.9 °F 29.34 in NW 7.0 mph 8.0 mph 93% 0.00 in
00:39 32.7 °F 30.9 °F 29.34 in Calm   8.0 mph 93% 0.00 in
00:44 32.8 °F 31.0 °F 29.34 in NNW 4.0 mph 8.0 mph 93% 0.00 in
00:49 32.7 °F 30.9 °F 29.33 in NW 3.0 mph 11.0 mph 93% 0.00 in
00:54 32.7 °F 30.9 °F 29.34 in NW 4.0 mph 11.0 mph 93% 0.00 in
00:59 32.8 °F 31.0 °F 29.34 in NW 4.0 mph 10.0 mph 93% 0.00 in
01:04 32.7 °F 30.9 °F 29.34 in NW 4.0 mph 10.0 mph 93% 0.00 in
01:09 32.8 °F 31.0 °F 29.34 in NW 3.0 mph 10.0 mph 93% 0.00 in
01:14 32.8 °F 31.0 °F 29.34 in NW 3.0 mph 7.0 mph 93% 0.00 in
01:19 32.8 °F 31.0 °F 29.34 in NW 5.0 mph 8.0 mph 93% 0.00 in
01:24 32.8 °F 31.0 °F 29.34 in WSW 6.0 mph 8.0 mph 93% 0.00 in
01:29 32.8 °F 31.0 °F 29.34 in NW 4.0 mph 8.0 mph 93% 0.00 in
01:34 32.8 °F 31.0 °F 29.34 in NW 2.0 mph 7.0 mph 93% 0.00 in
01:39 32.8 °F 31.0 °F 29.34 in NW 3.0 mph 9.0 mph 93% 0.00 in
01:44 32.8 °F 31.0 °F 29.34 in NW 2.0 mph 7.0 mph 93% 0.00 in
01:49 32.7 °F 30.9 °F 29.34 in WNW 2.0 mph 8.0 mph 93% 0.00 in
01:54 32.7 °F 30.9 °F 29.34 in WNW 3.0 mph 9.0 mph 93% 0.00 in
01:59 32.7 °F 30.9 °F 29.34 in NW 3.0 mph 9.0 mph 93% 0.00 in
02:04 32.7 °F 30.9 °F 29.34 in NW 3.0 mph 8.0 mph 93% 0.00 in
02:09 32.7 °F 30.9 °F 29.34 in NW 4.0 mph 8.0 mph 93% 0.00 in
02:14 32.7 °F 30.9 °F 29.34 in NW 4.0 mph 13.0 mph 93% 0.00 in
02:19 32.7 °F 30.9 °F 29.34 in NW 4.0 mph 13.0 mph 93% 0.00 in
02:24 32.8 °F 31.0 °F 29.34 in NNW 5.0 mph 11.0 mph 93% 0.00 in
02:29 32.8 °F 31.0 °F 29.34 in NW 5.0 mph 9.0 mph 93% 0.00 in
02:34 32.8 °F 31.0 °F 29.35 in NW 10.0 mph 10.0 mph 93% 0.00 in
02:39 32.8 °F 31.0 °F 29.35 in North 7.0 mph 13.0 mph 93% 0.00 in
02:44 32.8 °F 31.0 °F 29.34 in NW 5.0 mph 9.0 mph 93% 0.00 in
02:54 32.9 °F 31.1 °F 29.35 in North 4.0 mph 10.0 mph 93% 0.00 in
02:59 32.9 °F 31.1 °F 29.35 in WNW 5.0 mph 11.0 mph 93% 0.00 in
03:04 32.9 °F 31.1 °F 29.35 in NW 5.0 mph 13.0 mph 93% 0.00 in
03:09 32.9 °F 31.1 °F 29.35 in NW 6.0 mph 15.0 mph 93% 0.00 in
03:14 32.9 °F 31.1 °F 29.35 in NW 5.0 mph 15.0 mph 93% 0.00 in
03:19 32.9 °F 31.1 °F 29.35 in NNW 6.0 mph 11.0 mph 93% 0.00 in
03:24 32.9 °F 31.1 °F 29.35 in NW 5.0 mph 12.0 mph 93% 0.00 in
03:29 32.9 °F 31.1 °F 29.35 in WNW 2.0 mph 10.0 mph 93% 0.00 in
03:34 32.8 °F 31.0 °F 29.35 in NW 5.0 mph 11.0 mph 93% 0.00 in
03:39 32.8 °F 31.0 °F 29.35 in NW 5.0 mph 11.0 mph 93% 0.00 in
03:44 32.8 °F 31.0 °F 29.35 in NW 5.0 mph 9.0 mph 93% 0.00 in
03:49 32.8 °F 31.0 °F 29.36 in NNW 4.0 mph 12.0 mph 93% 0.01 in
03:54 32.8 °F 31.0 °F 29.36 in NW 2.0 mph 10.0 mph 93% 0.01 in
03:59 32.7 °F 30.9 °F 29.36 in NNW 4.0 mph 10.0 mph 93% 0.01 in
04:04 32.8 °F 31.0 °F 29.36 in NW 2.0 mph 10.0 mph 93% 0.01 in
04:09 32.8 °F 31.0 °F 29.36 in NW 5.0 mph 10.0 mph 93% 0.01 in
04:14 32.8 °F 31.0 °F 29.37 in NW 4.0 mph 11.0 mph 93% 0.01 in
04:19 32.8 °F 31.0 °F 29.37 in NW 5.0 mph 9.0 mph 93% 0.01 in
04:24 32.8 °F 31.0 °F 29.37 in NW 4.0 mph 9.0 mph 93% 0.01 in
04:29 32.8 °F 31.0 °F 29.37 in WSW 9.0 mph 11.0 mph 93% 0.01 in
04:34 32.8 °F 31.0 °F 29.37 in NW 6.0 mph 13.0 mph 93% 0.01 in
04:39 32.7 °F 30.9 °F 29.37 in NW 5.0 mph 13.0 mph 93% 0.01 in
04:44 32.8 °F 31.0 °F 29.37 in NNW 5.0 mph 11.0 mph 93% 0.01 in
04:49 32.7 °F 30.9 °F 29.38 in NW 5.0 mph 12.0 mph 93% 0.00 in
04:54 32.8 °F 31.0 °F 29.38 in NW 5.0 mph 12.0 mph 93% 0.01 in
04:59 32.8 °F 31.0 °F 29.38 in North 6.0 mph 9.0 mph 93% 0.01 in
05:04 32.7 °F 30.9 °F 29.38 in NW 4.0 mph 10.0 mph 93% 0.01 in
05:09 32.7 °F 30.9 °F 29.39 in NNW 5.0 mph 13.0 mph 93% 0.01 in
05:14 32.7 °F 30.9 °F 29.39 in NNW 5.0 mph 13.0 mph 93% 0.01 in
05:19 32.7 °F 30.9 °F 29.39 in NNW 6.0 mph 13.0 mph 93% 0.01 in
05:24 32.6 °F 30.8 °F 29.39 in NNW 7.0 mph 11.0 mph 93% 0.01 in
05:29 32.6 °F 30.8 °F 29.39 in WNW 3.0 mph 8.0 mph 93% 0.01 in
05:34 32.6 °F 30.8 °F 29.39 in NNW 4.0 mph 13.0 mph 93% 0.01 in
05:39 32.6 °F 30.8 °F 29.40 in NW 6.0 mph 13.0 mph 93% 0.01 in
05:44 32.6 °F 30.8 °F 29.40 in NW 6.0 mph 15.0 mph 93% 0.01 in
05:49 32.5 °F 30.7 °F 29.40 in NNW 7.0 mph 15.0 mph 93% 0.01 in
05:54 32.5 °F 30.7 °F 29.41 in NNW 7.0 mph 18.0 mph 93% 0.00 in
05:59 32.5 °F 30.7 °F 29.41 in NNW 7.0 mph 18.0 mph 93% 0.00 in
06:04 32.5 °F 30.7 °F 29.41 in NW 6.0 mph 12.0 mph 93% 0.00 in
06:09 32.4 °F 30.6 °F 29.41 in NNW 6.0 mph 12.0 mph 93% 0.00 in
06:14 32.4 °F 30.6 °F 29.42 in NNW 6.0 mph 15.0 mph 93% 0.00 in
06:19 32.4 °F 30.6 °F 29.42 in NW 5.0 mph 16.0 mph 93% 0.00 in
06:24 32.4 °F 30.6 °F 29.42 in NNW 3.0 mph 14.0 mph 93% 0.00 in
06:29 32.3 °F 30.5 °F 29.42 in NNW 8.0 mph 11.0 mph 93% 0.00 in
06:34 32.3 °F 30.5 °F 29.43 in NNW 5.0 mph 11.0 mph 93% 0.00 in
06:39 32.3 °F 30.5 °F 29.43 in North 4.0 mph 10.0 mph 93% 0.00 in
06:44 32.2 °F 30.4 °F 29.43 in NNW 5.0 mph 12.0 mph 93% 0.00 in
06:49 32.2 °F 30.4 °F 29.44 in NNW 6.0 mph 13.0 mph 93% 0.00 in
06:54 32.2 °F 30.4 °F 29.44 in NNW 6.0 mph 13.0 mph 93% 0.00 in
06:59 32.2 °F 30.4 °F 29.44 in NNW 6.0 mph 17.0 mph 93% 0.00 in
07:04 32.2 °F 30.4 °F 29.45 in NW 9.0 mph 11.0 mph 93% 0.00 in
07:09 32.1 °F 30.3 °F 29.45 in NW 13.0 mph 14.0 mph 93% 0.01 in
07:14 32.1 °F 30.3 °F 29.45 in NNW 5.0 mph 14.0 mph 93% 0.01 in
07:19 32.1 °F 30.3 °F 29.46 in NNW 2.0 mph 13.0 mph 93% 0.01 in
07:24 32.1 °F 30.3 °F 29.46 in Calm     93% 0.01 in
07:29 32.1 °F 30.3 °F 29.46 in Calm     93% 0.01 in
07:34 32.1 °F 30.3 °F 29.47 in Calm     93% 0.01 in
07:39 32.1 °F 30.0 °F 29.47 in Calm     92% 0.01 in
07:44 32.1 °F 30.0 °F 29.48 in Calm     92% 0.01 in
07:49 32.2 °F 30.1 °F 29.48 in Calm     92% 0.01 in
07:54 32.3 °F 30.2 °F 29.48 in Calm     92% 0.01 in
07:59 32.3 °F 30.2 °F 29.49 in Calm     92% 0.01 in
08:04 32.4 °F 30.1 °F 29.49 in Calm     91% 0.01 in
08:09 32.4 °F 30.1 °F 29.49 in Calm     91% 0.00 in
08:14 32.5 °F 30.2 °F 29.49 in Calm     91% 0.01 in
08:19 32.5 °F 30.2 °F 29.50 in Calm     91% 0.01 in
08:24 32.5 °F 30.2 °F 29.50 in Calm     91% 0.01 in
08:29 32.5 °F 30.2 °F 29.50 in Calm     91% 0.01 in
08:34 32.4 °F 30.1 °F 29.51 in NW 7.0 mph 11.0 mph 91% 0.01 in
08:39 32.4 °F 30.1 °F 29.51 in NNW 6.0 mph 13.0 mph 91% 0.01 in
08:44 32.4 °F 30.1 °F 29.52 in NNW 7.0 mph 11.0 mph 91% 0.01 in
08:49 32.3 °F 30.0 °F 29.52 in NNW 5.0 mph 11.0 mph 91% 0.01 in
08:54 32.2 °F 29.9 °F 29.52 in NW 3.0 mph 12.0 mph 91% 0.01 in
08:59 32.2 °F 29.9 °F 29.52 in NNW 4.0 mph 15.0 mph 91% 0.02 in
09:04 32.1 °F 29.8 °F 29.52 in NW 2.0 mph 13.0 mph 91% 0.02 in
09:09 32.1 °F 29.8 °F 29.53 in NNW 4.0 mph 12.0 mph 91% 0.02 in
09:14 32.0 °F 29.7 °F 29.53 in WNW 4.0 mph 11.0 mph 91% 0.01 in
09:19 32.0 °F 29.7 °F 29.54 in NNW 6.0 mph 12.0 mph 91% 0.01 in
09:24 32.0 °F 29.7 °F 29.54 in NNW 6.0 mph 12.0 mph 91% 0.01 in
09:29 32.1 °F 29.8 °F 29.54 in NW 6.0 mph 12.0 mph 91% 0.01 in
09:34 32.1 °F 29.8 °F 29.55 in NW 5.0 mph 13.0 mph 91% 0.02 in
09:39 32.1 °F 29.8 °F 29.55 in NNW 6.0 mph 20.0 mph 91% 0.02 in
09:44 32.0 °F 29.7 °F 29.55 in North 8.0 mph 13.0 mph 91% 0.02 in
09:49 32.1 °F 29.8 °F 29.55 in NNW 11.0 mph 16.0 mph 91% 0.02 in
09:54 32.3 °F 30.0 °F 29.56 in NNW 8.0 mph 22.0 mph 91% 0.02 in
09:59 32.4 °F 30.1 °F 29.56 in NNW 4.0 mph 13.0 mph 91% 0.01 in
10:04 32.3 °F 30.0 °F 29.56 in NNW 6.0 mph 14.0 mph 91% 0.01 in
10:09 32.1 °F 29.5 °F 29.57 in NNW 7.0 mph 20.0 mph 90% 0.02 in
10:14 32.1 °F 29.8 °F 29.57 in North 9.0 mph 17.0 mph 91% 0.02 in
10:19 32.2 °F 29.9 °F 29.57 in North 8.0 mph 15.0 mph 91% 0.02 in
10:24 32.3 °F 30.0 °F 29.57 in NNW 8.0 mph 17.0 mph 91% 0.02 in
10:29 32.4 °F 30.1 °F 29.58 in NW 7.0 mph 17.0 mph 91% 0.03 in
10:34 32.6 °F 30.3 °F 29.58 in NW 7.0 mph 21.0 mph 91% 0.02 in
10:39 32.7 °F 30.1 °F 29.58 in NNW 7.0 mph 21.0 mph 90% 0.02 in
10:44 32.5 °F 29.9 °F 29.59 in NNW 12.0 mph 17.0 mph 90% 0.03 in
10:49 32.6 °F 30.0 °F 29.59 in NW 8.0 mph 17.0 mph 90% 0.03 in
10:54 32.8 °F 30.2 °F 29.59 in NNW 7.0 mph 16.0 mph 90% 0.04 in
10:59 32.7 °F 30.1 °F 29.60 in West 11.0 mph 18.0 mph 90% 0.04 in
11:04 32.7 °F 30.1 °F 29.60 in NNW 10.0 mph 19.0 mph 90% 0.04 in
11:09 32.6 °F 29.7 °F 29.60 in North 9.0 mph 13.0 mph 89% 0.04 in
11:14 32.8 °F 29.9 °F 29.60 in NNW 3.0 mph 13.0 mph 89% 0.05 in
11:19 32.8 °F 29.9 °F 29.60 in North 5.0 mph 13.0 mph 89% 0.05 in
11:24 32.6 °F 29.7 °F 29.61 in NW 7.0 mph 14.0 mph 89% 0.06 in
11:29 32.6 °F 29.7 °F 29.61 in NW 8.0 mph 17.0 mph 89% 0.05 in
11:34 32.6 °F 29.7 °F 29.61 in NNW 9.0 mph 17.0 mph 89% 0.06 in
11:39 33.0 °F 30.1 °F 29.62 in NNW 7.0 mph 17.0 mph 89% 0.06 in
11:44 32.7 °F 29.8 °F 29.62 in North 6.0 mph 14.0 mph 89% 0.06 in
11:49 32.8 °F 29.9 °F 29.62 in NNW 7.0 mph 14.0 mph 89% 0.07 in
11:54 32.6 °F 29.7 °F 29.62 in NNW 10.0 mph 13.0 mph 89% 0.06 in
11:59 32.6 °F 29.7 °F 29.63 in North 7.0 mph 15.0 mph 89% 0.06 in
12:04 32.6 °F 29.7 °F 29.63 in North 6.0 mph 13.0 mph 89% 0.07 in
12:09 32.5 °F 29.3 °F 29.63 in NW 12.0 mph 12.0 mph 88% 0.06 in
12:14 32.5 °F 29.3 °F 29.64 in WNW 2.0 mph 22.0 mph 88% 0.06 in
12:19 32.6 °F 29.2 °F 29.64 in NW 6.0 mph 15.0 mph 87% 0.06 in
12:24 32.7 °F 29.0 °F 29.64 in NW 6.0 mph 15.0 mph 86% 0.05 in
12:29 32.8 °F 28.8 °F 29.64 in NW 6.0 mph 14.0 mph 85% 0.05 in
12:34 32.8 °F 28.5 °F 29.64 in NW 7.0 mph 18.0 mph 84% 0.04 in
12:39 32.8 °F 28.8 °F 29.64 in NW 8.0 mph 18.0 mph 85% 0.05 in
12:44 32.8 °F 28.5 °F 29.64 in NW 8.0 mph 16.0 mph 84% 0.04 in
12:49 33.0 °F 28.7 °F 29.65 in NNW 7.0 mph 12.0 mph 84% 0.03 in
12:54 33.0 °F 28.7 °F 29.65 in NW 6.0 mph 12.0 mph 84% 0.03 in
12:59 33.1 °F 28.8 °F 29.65 in NNW 7.0 mph 10.0 mph 84% 0.04 in
13:04 33.0 °F 28.7 °F 29.65 in WNW 7.0 mph 15.0 mph 84% 0.03 in
13:09 33.0 °F 28.4 °F 29.65 in NNW 6.0 mph 12.0 mph 83% 0.03 in
13:14 33.2 °F 28.6 °F 29.65 in NW 4.0 mph 14.0 mph 83% 0.02 in
13:19 33.1 °F 28.5 °F 29.66 in West 4.0 mph 17.0 mph 83% 0.02 in
13:24 33.0 °F 28.4 °F 29.66 in WNW 6.0 mph 17.0 mph 83% 0.02 in
13:29 33.0 °F 28.4 °F 29.66 in NW 7.0 mph 17.0 mph 83% 0.03 in
13:34 33.0 °F 28.4 °F 29.66 in NW 7.0 mph 17.0 mph 83% 0.03 in
13:39 33.0 °F 28.4 °F 29.66 in NW 7.0 mph 17.0 mph 83% 0.02 in
13:44 33.2 °F 28.6 °F 29.67 in NW 5.0 mph 12.0 mph 83% 0.02 in
13:49 33.1 °F 28.2 °F 29.67 in NNW 6.0 mph 13.0 mph 82% 0.02 in
13:54 33.3 °F 28.1 °F 29.67 in North 5.0 mph 13.0 mph 81% 0.02 in
13:59 33.3 °F 28.1 °F 29.68 in NW 6.0 mph 14.0 mph 81% 0.02 in
14:04 33.3 °F 28.1 °F 29.68 in North 6.0 mph 11.0 mph 81% 0.02 in
14:09 33.4 °F 28.5 °F 29.68 in NNW 2.0 mph 8.0 mph 82% 0.02 in
14:14 33.5 °F 28.6 °F 29.68 in NW 4.0 mph 10.0 mph 82% 0.02 in
14:19 33.5 °F 28.6 °F 29.68 in WNW 10.0 mph 14.0 mph 82% 0.02 in
14:24 33.3 °F 28.1 °F 29.69 in WNW 15.0 mph 16.0 mph 81% 0.03 in
14:29 33.4 °F 28.5 °F 29.69 in NW 1.0 mph 17.0 mph 82% 0.02 in
14:34 33.3 °F 28.1 °F 29.69 in NW 7.0 mph 17.0 mph 81% 0.02 in
14:39 33.4 °F 28.2 °F 29.69 in NW 6.0 mph 14.0 mph 81% 0.02 in
14:49 33.3 °F 28.1 °F 29.69 in NW 8.0 mph 16.0 mph 81% 0.03 in
14:54 33.5 °F 28.0 °F 29.70 in WNW 3.0 mph 16.0 mph 80% 0.03 in
14:59 33.4 °F 27.9 °F 29.69 in NW 7.0 mph 16.0 mph 80% 0.02 in
15:04 33.5 °F 28.0 °F 29.70 in NW 4.0 mph 13.0 mph 80% 0.02 in
15:09 33.7 °F 28.2 °F 29.70 in NW 10.0 mph 12.0 mph 80% 0.02 in
15:14 33.7 °F 28.2 °F 29.70 in NNW 5.0 mph 13.0 mph 80% 0.02 in
15:19 33.7 °F 27.9 °F 29.71 in North 7.0 mph 14.0 mph 79% 0.02 in
15:24 33.9 °F 28.4 °F 29.71 in NW 5.0 mph 11.0 mph 80% 0.02 in
15:29 33.9 °F 28.1 °F 29.71 in NW 6.0 mph 11.0 mph 79% 0.02 in
15:39 33.8 °F 27.7 °F 29.71 in NW 7.0 mph 17.0 mph 78% 0.02 in
15:44 33.9 °F 28.1 °F 29.71 in NW 6.0 mph 11.0 mph 79% 0.02 in
15:49 34.2 °F 28.4 °F 29.71 in NW 5.0 mph 11.0 mph 79% 0.01 in
15:54 34.2 °F 28.1 °F 29.71 in WNW 4.0 mph 10.0 mph 78% 0.02 in
15:59 34.1 °F 28.0 °F 29.72 in WNW 3.0 mph 13.0 mph 78% 0.02 in
16:04 34.3 °F 28.2 °F 29.72 in NW 6.0 mph 13.0 mph 78% 0.02 in
16:09 34.3 °F 28.2 °F 29.72 in NW 5.0 mph 11.0 mph 78% 0.02 in
16:14 34.4 °F 28.2 °F 29.72 in NW 3.0 mph 12.0 mph 78% 0.02 in
16:19 34.3 °F 28.2 °F 29.72 in WNW 6.0 mph 13.0 mph 78% 0.02 in
16:24 34.3 °F 28.2 °F 29.72 in NW 6.0 mph 12.0 mph 78% 0.01 in
16:29 34.3 °F 27.8 °F 29.73 in WNW 4.0 mph 11.0 mph 77% 0.01 in
16:34 34.4 °F 27.9 °F 29.73 in NW 6.0 mph 16.0 mph 77% 0.01 in
16:39 34.4 °F 27.6 °F 29.73 in NW 7.0 mph 16.0 mph 76% 0.02 in
16:44 34.5 °F 27.4 °F 29.73 in North 3.0 mph 13.0 mph 75% 0.02 in
16:49 34.7 °F 27.9 °F 29.73 in NW 10.0 mph 12.0 mph 76% 0.02 in
16:54 34.8 °F 28.0 °F 29.73 in WNW 6.0 mph 14.0 mph 76% 0.01 in
16:59 35.1 °F 28.0 °F 29.73 in NNW 5.0 mph 10.0 mph 75% 0.01 in
17:04 35.1 °F 27.6 °F 29.74 in NW 6.0 mph 11.0 mph 74% 0.01 in
17:09 35.3 °F 28.2 °F 29.74 in NW 5.0 mph 11.0 mph 75% 0.02 in
17:14 35.5 °F 28.0 °F 29.74 in NW 5.0 mph 14.0 mph 74% 0.02 in
17:19 35.7 °F 28.2 °F 29.74 in NW 5.0 mph 14.0 mph 74% 0.02 in
17:24 35.9 °F 28.1 °F 29.75 in NW 5.0 mph 11.0 mph 73% 0.02 in
17:29 36.0 °F 28.2 °F 29.75 in NW 5.0 mph 11.0 mph 73% 0.02 in
17:34 36.2 °F 27.7 °F 29.75 in NNW 3.0 mph 11.0 mph 71% 0.02 in
17:39 36.6 °F 27.7 °F 29.75 in NNW 5.0 mph 11.0 mph 70% 0.01 in
17:44 36.8 °F 27.6 °F 29.75 in NW 9.0 mph 13.0 mph 69% 0.02 in
17:49 37.2 °F 27.2 °F 29.76 in NNE 7.0 mph 12.0 mph 67% 0.02 in
17:54 37.4 °F 27.4 °F 29.76 in NW 6.0 mph 14.0 mph 67% 0.02 in
17:59 37.5 °F 27.9 °F 29.76 in WNW 3.0 mph 11.0 mph 68% 0.02 in
18:04 37.6 °F 27.3 °F 29.76 in NW 5.0 mph 11.0 mph 66% 0.03 in
18:09 37.5 °F 27.5 °F 29.76 in WNW 5.0 mph 11.0 mph 67% 0.02 in
18:14 37.7 °F 27.4 °F 29.77 in NW 5.0 mph 13.0 mph 66% 0.02 in
18:19 37.6 °F 27.6 °F 29.77 in NW 6.0 mph 15.0 mph 67% 0.02 in
18:24 37.7 °F 27.7 °F 29.77 in NW 6.0 mph 15.0 mph 67% 0.02 in
18:29 37.5 °F 27.2 °F 29.77 in NNW 4.0 mph 10.0 mph 66% 0.02 in
18:34 37.6 °F 27.6 °F 29.77 in NW 5.0 mph 12.0 mph 67% 0.02 in
18:39 37.5 °F 27.5 °F 29.78 in NNW 6.0 mph 14.0 mph 67% 0.02 in
18:44 37.5 °F 27.9 °F 29.78 in West 9.0 mph 12.0 mph 68% 0.01 in
18:49 37.4 °F 27.1 °F 29.78 in WNW 3.0 mph 11.0 mph 66% 0.01 in
18:54 37.4 °F 27.1 °F 29.78 in NNW 2.0 mph 14.0 mph 66% 0.01 in
18:59 37.3 °F 27.0 °F 29.78 in North 7.0 mph 14.0 mph 66% 0.01 in
19:04 37.3 °F 27.0 °F 29.79 in NW 7.0 mph 10.0 mph 66% 0.01 in
19:09 37.2 °F 26.9 °F 29.79 in NW 5.0 mph 15.0 mph 66% 0.01 in
19:14 37.1 °F 26.8 °F 29.79 in NW 4.0 mph 15.0 mph 66% 0.01 in
19:19 37.0 °F 26.3 °F 29.79 in NW 4.0 mph 11.0 mph 65% 0.01 in
19:24 36.9 °F 26.2 °F 29.80 in NW 5.0 mph 11.0 mph 65% 0.01 in
19:29 36.8 °F 26.5 °F 29.80 in NW 4.0 mph 11.0 mph 66% 0.01 in
19:34 36.5 °F 26.2 °F 29.80 in WNW 6.0 mph 7.0 mph 66% 0.01 in
19:39 36.4 °F 26.1 °F 29.80 in NW 4.0 mph 9.0 mph 66% 0.01 in
19:44 36.2 °F 26.3 °F 29.80 in NNW 5.0 mph 8.0 mph 67% 0.01 in
19:49 36.2 °F 26.3 °F 29.81 in NW 3.0 mph 7.0 mph 67% 0.01 in
19:54 36.1 °F 26.6 °F 29.81 in WNW 3.0 mph 7.0 mph 68% 0.01 in
19:59 35.9 °F 26.4 °F 29.81 in West 1.0 mph 5.0 mph 68% 0.01 in
20:04 35.6 °F 26.4 °F 29.81 in WNW 1.0 mph 4.0 mph 69% 0.00 in
20:09 35.7 °F 26.5 °F 29.81 in WNW 3.0 mph 8.0 mph 69% 0.00 in
20:14 35.7 °F 26.5 °F 29.81 in WNW 3.0 mph 8.0 mph 69% 0.00 in
20:19 35.9 °F 26.0 °F 29.81 in WNW 4.0 mph 9.0 mph 67% 0.00 in
20:24 36.1 °F 26.2 °F 29.82 in WNW 5.0 mph 10.0 mph 67% 0.00 in
20:29 35.9 °F 26.0 °F 29.82 in West 4.0 mph 10.0 mph 67% 0.00 in
20:34 35.7 °F 25.8 °F 29.82 in West 3.0 mph 7.0 mph 67% 0.00 in
20:39 35.5 °F 25.6 °F 29.82 in West 3.0 mph 6.0 mph 67% 0.00 in
20:44 35.3 °F 25.4 °F 29.82 in West 3.0 mph 6.0 mph 67% 0.00 in
20:49 35.4 °F 25.5 °F 29.83 in WSW 2.0 mph 7.0 mph 67% 0.00 in
20:54 35.4 °F 25.5 °F 29.83 in WNW 2.0 mph 7.0 mph 67% 0.00 in
21:04 35.2 °F 25.3 °F 29.83 in WNW 2.0 mph 5.0 mph 67% 0.00 in
21:09 35.2 °F 25.7 °F 29.83 in West 2.0 mph 7.0 mph 68% 0.00 in
21:14 35.0 °F 25.5 °F 29.83 in West 4.0 mph 8.0 mph 68% 0.00 in
21:19 35.1 °F 25.6 °F 29.84 in West 4.0 mph 8.0 mph 68% 0.00 in
21:24 35.1 °F 25.2 °F 29.84 in West 3.0 mph 7.0 mph 67% 0.00 in
21:29 35.2 °F 25.0 °F 29.84 in West 3.0 mph 8.0 mph 66% 0.00 in
21:34 35.1 °F 24.9 °F 29.84 in West 3.0 mph 8.0 mph 66% 0.00 in
21:39 35.1 °F 24.5 °F 29.84 in West 2.0 mph 7.0 mph 65% 0.00 in
21:44 35.1 °F 24.1 °F 29.85 in West 3.0 mph 8.0 mph 64% 0.00 in
21:49 35.0 °F 24.0 °F 29.85 in West 2.0 mph 8.0 mph 64% 0.00 in
21:54 35.0 °F 24.0 °F 29.85 in WSW 2.0 mph 5.0 mph 64% 0.00 in
21:59 34.8 °F 24.2 °F 29.85 in West 2.0 mph 4.0 mph 65% 0.00 in
22:04 34.6 °F 24.0 °F 29.85 in West 1.0 mph 6.0 mph 65% 0.00 in
22:09 34.5 °F 23.6 °F 29.85 in WNW 3.0 mph 7.0 mph 64% 0.00 in
22:14 34.4 °F 23.5 °F 29.85 in WNW 3.0 mph 7.0 mph 64% 0.00 in
22:19 34.4 °F 23.5 °F 29.85 in West 3.0 mph 6.0 mph 64% 0.00 in
22:24 34.4 °F 23.5 °F 29.85 in West 3.0 mph 6.0 mph 64% 0.00 in
22:29 34.6 °F 23.3 °F 29.85 in West 2.0 mph 7.0 mph 63% 0.00 in
22:34 34.7 °F 23.4 °F 29.85 in West 5.0 mph 6.0 mph 63% 0.00 in
22:39 34.9 °F 23.6 °F 29.85 in West 2.0 mph 7.0 mph 63% 0.00 in
22:44 34.8 °F 23.5 °F 29.85 in WNW 3.0 mph 5.0 mph 63% 0.00 in
22:49 34.7 °F 23.8 °F 29.85 in West 3.0 mph 6.0 mph 64% 0.00 in
22:54 34.5 °F 23.6 °F 29.86 in West 3.0 mph 6.0 mph 64% 0.00 in
22:59 34.6 °F 23.7 °F 29.86 in West 3.0 mph 6.0 mph 64% 0.00 in
23:04 34.7 °F 24.1 °F 29.86 in West 3.0 mph 8.0 mph 65% 0.00 in
23:09 34.7 °F 24.1 °F 29.86 in West 4.0 mph 8.0 mph 65% 0.00 in
23:14 34.8 °F 24.2 °F 29.86 in West 4.0 mph 7.0 mph 65% 0.00 in
23:19 34.7 °F 24.1 °F 29.86 in West 4.0 mph 8.0 mph 65% 0.00 in
23:24 34.6 °F 24.4 °F 29.86 in WNW 3.0 mph 8.0 mph 66% 0.00 in
23:29 34.6 °F 24.4 °F 29.86 in West 5.0 mph 8.0 mph 66% 0.00 in
23:34 34.6 °F 24.4 °F 29.86 in WSW 3.0 mph 9.0 mph 66% 0.00 in
23:39 34.6 °F 24.4 °F 29.86 in West 7.0 mph 10.0 mph 66% 0.00 in
23:44 34.4 °F 24.2 °F 29.86 in WNW 7.0 mph 10.0 mph 66% 0.00 in
23:49 34.4 °F 24.2 °F 29.86 in West 2.0 mph 8.0 mph 66% 0.00 in
23:54 34.3 °F 24.5 °F 29.86 in West 4.0 mph 8.0 mph 67% 0.00 in
23:59 34.1 °F 24.3 °F 29.86 in West 4.0 mph 9.0 mph 67% 0.00 in
Buffalo, New York, USA
Compliments of Weather Underground - 2.5 mb